• In Hungary
  • List of Countries
  • For 7 days
  • Water Temperature
  • Satellite Maps
  • Weather Map
  • News
  • Weather Widgets
  • user-avatar
    Login

    Hourly Weather Imphal

    Today, 21 November, Tuesday

    Time Temperature Precipitation Wind Pressure Humidity
    00:00 +19°C° 0 mm 1 mps 692 mmHg 97%
    01:00 +19°C° 0 mm 1 mps 692 mmHg 97%
    02:00 +19°C° 0 mm 1 mps 692 mmHg 97%
    03:00 +19°C° 0 mm 1 mps 692 mmHg 97%
    04:00 +18°C° 0 mm 1 mps 692 mmHg 97%
    05:00 +18°C° 0 mm 1 mps 692 mmHg 97%
    06:00 +18°C° 0 mm 1 mps 692 mmHg 98%
    07:00 +18°C° 0 mm 0 mps 693 mmHg 90%
    08:00 +20°C° 0 mm 0 mps 694 mmHg 82%
    09:00 +22°C° 0 mm 0 mps 695 mmHg 75%
    10:00 +24°C° 0 mm 0 mps 694 mmHg 66%
    11:00 +27°C° 0 mm 1 mps 694 mmHg 58%
    12:00 +29°C° 0 mm 1 mps 694 mmHg 50%
    13:00 +28°C° 0 mm 1 mps 693 mmHg 51%
    14:00 +28°C° 0 mm 1 mps 692 mmHg 53%
    15:00 +28°C° 0 mm 1 mps 691 mmHg 54%
    16:00 +25°C° 0 mm 1 mps 691 mmHg 65%
    17:00 +21°C° 0 mm 0 mps 691 mmHg 75%
    18:00 +18°C° 0 mm 0 mps 691 mmHg 86%
    19:00 +18°C° 0 mm 0 mps 691 mmHg 88%
    20:00 +17°C° 0 mm 0 mps 692 mmHg 89%
    21:00 +19°C° 0 mm 1 mps 692 mmHg 91%
    22:00 +18°C° 0 mm 1 mps 692 mmHg 91%
    23:00 +18°C° 0 mm 1 mps 692 mmHg 92%

    Tomorrow, 22 November, Wednesday

    Time Temperature Precipitation Wind Pressure Humidity
    00:00 +16°C° 0 mm 1 mps 692 mmHg 92%
    01:00 +16°C° 0 mm 1 mps 691 mmHg 92%
    02:00 +16°C° 0 mm 1 mps 691 mmHg 91%
    03:00 +16°C° 0 mm 1 mps 691 mmHg 91%
    04:00 +15°C° 0 mm 1 mps 691 mmHg 90%
    05:00 +15°C° 0 mm 1 mps 691 mmHg 89%
    06:00 +15°C° 0 mm 1 mps 691 mmHg 87%
    07:00 +19°C° 0 mm 1 mps 692 mmHg 78%
    08:00 +21°C° 0 mm 1 mps 693 mmHg 68%
    09:00 +24°C° 0 mm 1 mps 694 mmHg 59%
    10:00 +25°C° 0 mm 1 mps 693 mmHg 55%
    11:00 +27°C° 0 mm 1 mps 693 mmHg 52%
    12:00 +28°C° 0 mm 1 mps 693 mmHg 48%
    13:00 +28°C° 0 mm 1 mps 692 mmHg 50%
    14:00 +27°C° 0 mm 1 mps 691 mmHg 53%
    15:00 +27°C° 0 mm 1 mps 690 mmHg 55%
    16:00 +24°C° 0 mm 1 mps 690 mmHg 65%
    17:00 +22°C° 0 mm 1 mps 690 mmHg 76%
    18:00 +17°C° 0 mm 0 mps 690 mmHg 87%
    19:00 +17°C° 0 mm 0 mps 690 mmHg 87%
    20:00 +17°C° 0 mm 0 mps 691 mmHg 88%
    21:00 +16°C° 0 mm 0 mps 691 mmHg 89%
    22:00 +18°C° 0 mm 1 mps 691 mmHg 89%
    23:00 +18°C° 0 mm 1 mps 691 mmHg 89%

    Day after tomorrow, 23 November, Thursday

    Time Temperature Precipitation Wind Pressure Humidity
    00:00 +18°C° 0 mm 1 mps 691 mmHg 89%
    01:00 +16°C° 0 mm 1 mps 691 mmHg 89%
    02:00 +16°C° 0 mm 1 mps 691 mmHg 89%
    03:00 +16°C° 0 mm 1 mps 690 mmHg 89%
    04:00 +16°C° 0 mm 1 mps 691 mmHg 89%
    05:00 +16°C° 0 mm 1 mps 691 mmHg 90%
    06:00 +16°C° 0 mm 1 mps 691 mmHg 90%
    07:00 +19°C° 0 mm 1 mps 692 mmHg 84%
    08:00 +22°C° 0 mm 1 mps 693 mmHg 78%
    09:00 +24°C° 0 mm 1 mps 694 mmHg 71%
    10:00 +25°C° 0.1 mm 1 mps 694 mmHg 66%
    11:00 +26°C° 0.1 mm 1 mps 693 mmHg 60%
    12:00 +27°C° 0.1 mm 1 mps 693 mmHg 55%
    13:00 +27°C° 0.1 mm 1 mps 692 mmHg 56%
    14:00 +26°C° 0.1 mm 1 mps 692 mmHg 57%
    15:00 +26°C° 0.1 mm 1 mps 691 mmHg 59%
    16:00 +24°C° 0 mm 1 mps 691 mmHg 69%
    17:00 +22°C° 0 mm 1 mps 691 mmHg 79%
    18:00 +17°C° 0 mm 0 mps 690 mmHg 89%
    19:00 +17°C° 0 mm 0 mps 691 mmHg 90%
    20:00 +19°C° 0 mm 1 mps 692 mmHg 91%
    21:00 +18°C° 0 mm 1 mps 692 mmHg 92%
    22:00 +18°C° 0 mm 1 mps 692 mmHg 92%
    23:00 +18°C° 0 mm 1 mps 692 mmHg 92%

    24 November, Friday

    Time Temperature Precipitation Wind Pressure Humidity
    00:00 +18°C° 0 mm 1 mps 692 mmHg 93%
    01:00 +18°C° 0 mm 1 mps 692 mmHg 92%
    02:00 +18°C° 0 mm 1 mps 692 mmHg 92%
    03:00 +18°C° 0 mm 1 mps 691 mmHg 91%
    04:00 +16°C° 0 mm 1 mps 692 mmHg 92%
    05:00 +16°C° 0 mm 1 mps 692 mmHg 93%
    06:00 +16°C° 0 mm 1 mps 692 mmHg 94%
    07:00 +19°C° 0 mm 1 mps 693 mmHg 86%
    08:00 +22°C° 0 mm 1 mps 694 mmHg 79%
    09:00 +24°C° 0 mm 1 mps 695 mmHg 71%
    10:00 +25°C° 0.1 mm 1 mps 694 mmHg 64%
    11:00 +26°C° 0.1 mm 1 mps 694 mmHg 58%
    12:00 +27°C° 0.1 mm 1 mps 693 mmHg 51%
    13:00 +27°C° 0 mm 1 mps 693 mmHg 52%
    14:00 +26°C° 0 mm 1 mps 692 mmHg 53%
    15:00 +26°C° 0 mm 1 mps 691 mmHg 55%
    16:00 +24°C° 0 mm 1 mps 691 mmHg 65%
    17:00 +19°C° 0 mm 0 mps 691 mmHg 76%
    18:00 +17°C° 0 mm 0 mps 691 mmHg 86%
    19:00 +16°C° 0 mm 0 mps 692 mmHg 87%
    20:00 +16°C° 0 mm 0 mps 692 mmHg 89%
    21:00 +16°C° 0 mm 0 mps 693 mmHg 90%
    22:00 +16°C° 0 mm 0 mps 693 mmHg 90%
    23:00 +15°C° 0 mm 0 mps 693 mmHg 90%

    25 November, Saturday

    Time Temperature Precipitation Wind Pressure Humidity
    00:00 +15°C° 0 mm 0 mps 692 mmHg 90%
    01:00 +15°C° 0 mm 0 mps 692 mmHg 90%
    02:00 +15°C° 0 mm 0 mps 692 mmHg 91%
    03:00 +15°C° 0 mm 0 mps 692 mmHg 91%
    04:00 +14°C° 0 mm 0 mps 692 mmHg 92%
    05:00 +14°C° 0 mm 0 mps 693 mmHg 93%
    06:00 +14°C° 0 mm 0 mps 693 mmHg 93%
    07:00 +16°C° 0 mm 0 mps 694 mmHg 84%
    08:00 +21°C° 0 mm 1 mps 695 mmHg 75%
    09:00 +23°C° 0 mm 1 mps 696 mmHg 66%
    10:00 +24°C° 0 mm 1 mps 695 mmHg 60%
    11:00 +26°C° 0 mm 1 mps 695 mmHg 54%
    12:00 +27°C° 0 mm 1 mps 694 mmHg 48%
    13:00 +26°C° 0 mm 1 mps 694 mmHg 49%
    14:00 +26°C° 0 mm 1 mps 693 mmHg 51%
    15:00 +26°C° 0 mm 1 mps 693 mmHg 52%
    16:00 +23°C° 0 mm 1 mps 693 mmHg 63%
    17:00 +21°C° 0 mm 1 mps 693 mmHg 74%
    18:00 +16°C° 0 mm 0 mps 692 mmHg 85%
    19:00 +16°C° 0 mm 0 mps 693 mmHg 86%
    20:00 +18°C° 0 mm 1 mps 693 mmHg 88%
    21:00 +16°C° 0 mm 1 mps 694 mmHg 90%
    22:00 +16°C° 0 mm 1 mps 694 mmHg 90%
    23:00 +16°C° 0 mm 1 mps 694 mmHg 91%

    26 November, Sunday

    Time Temperature Precipitation Wind Pressure Humidity
    00:00 +15°C° 0 mm 1 mps 694 mmHg 91%
    01:00 +15°C° 0 mm 1 mps 694 mmHg 91%
    02:00 +15°C° 0 mm 1 mps 694 mmHg 92%
    03:00 +15°C° 0 mm 1 mps 693 mmHg 92%
    04:00 +15°C° 0 mm 1 mps 694 mmHg 92%
    05:00 +14°C° 0 mm 1 mps 694 mmHg 92%
    06:00 +14°C° 0 mm 1 mps 694 mmHg 92%
    07:00 +18°C° 0 mm 1 mps 695 mmHg 83%
    08:00 +20°C° 0 mm 1 mps 696 mmHg 74%
    09:00 +23°C° 0 mm 1 mps 696 mmHg 64%
    10:00 +24°C° 0 mm 1 mps 696 mmHg 58%
    11:00 +25°C° 0 mm 1 mps 695 mmHg 53%
    12:00 +27°C° 0 mm 1 mps 695 mmHg 47%
    13:00 +26°C° 0 mm 1 mps 694 mmHg 48%
    14:00 +26°C° 0 mm 1 mps 693 mmHg 50%
    15:00 +26°C° 0 mm 1 mps 693 mmHg 52%
    16:00 +23°C° 0 mm 1 mps 692 mmHg 63%
    17:00 +21°C° 0 mm 1 mps 692 mmHg 74%
    18:00 +16°C° 0 mm 0 mps 692 mmHg 85%
    19:00 +18°C° 0 mm 1 mps 692 mmHg 87%
    20:00 +16°C° 0 mm 1 mps 693 mmHg 88%
    21:00 +16°C° 0 mm 1 mps 693 mmHg 90%
    22:00 +15°C° 0 mm 1 mps 693 mmHg 90%
    23:00 +15°C° 0 mm 1 mps 693 mmHg 90%
    Show more